History for Miami, FL

Friday, December 28, 2012 — View Current Conditions

Jump to Data:

Date:
Airport Code:
Recently Viewed Airport Codes: KMIA
Daily Summary
  Actual Average Record
Temperature
Mean Temperature 68°F 69°F  
Max Temperature 78°F 77°F 83°F (1981)
Min Temperature 57°F 61°F 37°F (1902)
Degree Days
Heating Degree Days 0 2  
Month to date heating degree days 12 28  
Since 1 July heating degree days 13 31  
Cooling Degree Days 3 5  
Month to date cooling degree days 222 187  
Year to date cooling degree days 4662 4559  
Growing Degree Days 18 (Base 50)    
Moisture
Dew Point 62°F    
Average Humidity 71    
Maximum Humidity 82    
Minimum Humidity 60    
Precipitation
Precipitation 0.00 in 0.06 in 0.71 in (1955)
Month to date precipitation 0.51 1.87  
Year to date precipitation 86.94 61.73  
Snow
Snow 0.00 in in in ()
Month to date snowfall 0.0  
Since 1 July snowfall 0.0  
Snow Depth 0.00 in    
Sea Level Pressure
Sea Level Pressure 30.04 in    
Wind
Wind Speed 4 mph (SE)    
Max Wind Speed 14 mph    
Max Gust Speed 21 mph    
Visibility 10 miles    
Events      
T = Trace of Precipitation, MM = Missing Value Source: NWS Daily Summary

Show full METARS

(help) - Comma Delimited File

Hourly Observations

Time(EST) Temperature Dew Point Humidity Sea Level Pressure Visibility Wind Direction Wind Speed Gust Speed Precipitation Events Conditions
12:53 AM 60.1°F 46.9°F 62% 30.06 in 10.0 miles Calm Calm - N/A   Scattered Clouds
1:53 AM 59.0°F 48.0°F 67% 30.04 in 10.0 miles North 3.5 mph - N/A   Mostly Cloudy
2:53 AM 60.1°F 48.9°F 67% 30.04 in 10.0 miles Calm Calm - N/A   Mostly Cloudy
3:53 AM 59.0°F 50.0°F 72% 30.04 in 10.0 miles Calm Calm - N/A   Clear
4:53 AM 59.0°F 51.1°F 75% 30.04 in 10.0 miles Calm Calm - N/A   Scattered Clouds
5:53 AM 60.8°F 53.6°F 77% 30.05 in 10.0 miles Calm Calm - N/A   Partly Cloudy
6:53 AM 60.1°F 54.0°F 80% 30.06 in 10.0 miles Calm Calm - N/A   Partly Cloudy
7:53 AM 63.0°F 55.0°F 75% 30.07 in 10.0 miles Calm Calm - N/A   Scattered Clouds
8:53 AM 71.1°F 60.1°F 68% 30.07 in 10.0 miles Calm Calm - N/A   Scattered Clouds
9:31 AM 73.4°F 62.6°F 69% 30.08 in 10.0 miles East 5.8 mph - N/A   Mostly Cloudy
9:53 AM 75.0°F 63.0°F 66% 30.09 in 10.0 miles ENE 5.8 mph - N/A   Mostly Cloudy
10:53 AM 75.9°F 66.0°F 71% 30.08 in 10.0 miles ESE 12.7 mph 17.3 mph N/A   Mostly Cloudy
11:53 AM 78.1°F 68.0°F 71% 30.06 in 10.0 miles SE 11.5 mph - N/A   Mostly Cloudy
12:53 PM 77.0°F 68.0°F 74% 30.03 in 10.0 miles ESE 12.7 mph - N/A   Mostly Cloudy
1:53 PM 77.0°F 68.0°F 74% 30.01 in 10.0 miles SE 9.2 mph - N/A   Mostly Cloudy
2:53 PM 75.9°F 69.1°F 79% 29.99 in 10.0 miles SE 12.7 mph 19.6 mph N/A   Overcast
3:53 PM 75.9°F 69.1°F 79% 29.99 in 10.0 miles SE 11.5 mph - N/A   Overcast
4:53 PM 75.9°F 69.1°F 79% 30.00 in 10.0 miles Variable 5.8 mph - N/A   Overcast
5:53 PM 75.0°F 69.1°F 82% 30.00 in 10.0 miles SE 11.5 mph - N/A   Mostly Cloudy
6:53 PM 73.9°F 69.1°F 85% 30.01 in 10.0 miles SE 9.2 mph - N/A   Mostly Cloudy
7:53 PM 73.9°F 69.1°F 85% 30.02 in 10.0 miles SE 4.6 mph - N/A   Mostly Cloudy
8:53 PM 73.9°F 69.1°F 85% 30.03 in 10.0 miles SE 3.5 mph - N/A   Mostly Cloudy
9:53 PM 73.9°F 69.1°F 85% 30.03 in 10.0 miles SE 3.5 mph - N/A   Scattered Clouds
10:53 PM 73.9°F 69.1°F 85% 30.02 in 10.0 miles SE 5.8 mph - N/A   Scattered Clouds
11:53 PM 73.0°F 70.0°F 90% 30.01 in 10.0 miles SSE 5.8 mph - N/A   Scattered Clouds